CAPE
4 0 2 3 4 4 6 3 2 1 1 1 1 0 0 3 1 0 0 0 0 0 0 0 0 0 0 0 0 0 0 0 0 0 0 0 0 0 0 0 0 0 0 0 0
3 2 1 2 3 3 3 3 2 1 1 1 2 2 0 2 0 0 0 0 0 0 0 0 0 0 0 0 0 0 0 0 0 0 0 0 0 0 0 0 0 0 0 0 0
3 5 2 3 2 1 1 1 1 1 1 1 0 1 1 1 0 0 0 0 0 0 0 0 0 0 0 0 0 0 0 0 0 0 0 0 0 0 0 0 0 0 0 0 0
5 4 3 3 2 1 1 1 1 1 1 0 0 1 2 0 0 0 0 0 0 0 0 0 0 0 0 0 0 0 0 0 0 0 0 0 0 0 0 0 0 0 0 0 0
3 2 2 2 2 1 1 1 0 0 1 1 0 2 0 0 0 0 0 0 0 0 0 0 0 0 0 0 0 0 0 0 0 0 0 0 0 0 0 0 0 0 0 0 0
3 1 3 1 0 1 1 0 1 0 1 1 0 0 0 0 0 0 0 0 0 0 0 0 0 0 0 0 0 0 0 0 0 0 0 0 0 0 0 0 0 0 0 0 0
0 0 1 2 1 0 0 1 1 1 1 1 0 1 0 0 0 0 0 0 0 0 0 0 0 0 0 0 0 0 0 0 0 0 0 0 0 0 0 0 0 0 0 0 0
0 0 0 1 3 1 0 0 0 0 1 0 0 0 0 0 0 0 0 0 0 0 0 0 0 0 0 0 0 0 0 0 0 0 0 0 0 0 0 0 0 0 0 0 0
0 0 0 0 1 3 0 0 0 0 0 1 0 0 0 0 0 0 0 0 0 0 0 0 0 0 0 0 0 0 0 0 0 0 0 0 0 0 0 0 0 0 0 0 0
0 0 0 0 0 0 0 0 0 0 0 0 0 0 0 0 0 0 0 0 0 0 0 0 0 0 0 0 0 0 0 0 0 0 0 0 0 0 0 0 0 0 0 0 0
0 0 0 0 0 0 0 0 0 0 0 0 0 0 0 0 0 0 0 0 0 0 0 0 0 0 0 0 0 0 0 0 0 0 0 0 0 0 0 0 0 0 0 0 0
0 0 0 0 0 0 0 0 0 0 0 0 0 0 0 0 0 0 0 0 0 0 0 0 0 0 0 0 0 0 0 0 0 0 0 0 0 0 0 0 0 0 0 0 0
0 0 0 0 0 0 0 0 0 0 0 0 0 0 0 0 0 0 0 0 0 0 0 0 0 0 0 0 0 0 0 0 0 0 0 0 0 0 0 0 0 0 0 0 0
0 0 0 0 0 0 0 0 0 0 0 0 0 0 0 0 0 0 0 0 0 0 0 0 0 0 0 0 0 0 0 0 0 0 0 0 0 0 0 0 0 0 0 0 0
0 0 0 0 0 0 0 0 0 0 0 0 0 0 0 0 0 0 0 0 0 0 0 0 0 0 0 0 0 0 0 0 0 0 0 0 0 0 0 0 0 0 0 0 0
0 0 0 0 0 0 0 0 0 0 0 0 0 0 0 0 0 0 0 0 0 0 0 0 0 0 0 0 0 0 0 0 0 0 0 0 0 0 0 0 0 0 0 0 0
0 0 0 0 0 0 0 0 0 0 0 0 0 0 0 0 0 0 0 0 0 0 0 0 0 0 0 0 0 0 0 0 0 0 0 0 0 0 0 0 0 0 0 0 0
0 0 0 0 0 0 0 0 0 0 0 0 0 0 0 0 0 0 0 0 0 0 0 0 0 0 0 0 0 0 0 0 0 0 0 0 0 0 0 0 0 0 0 0 0
0 0 0 0 0 0 0 0 0 0 0 0 0 0 0 0 0 0 0 0 0 0 0 0 0 0 0 0 0 0 0 0 0 0 0 0 0 0 0 14 12 1 0 0 0
0 0 0 0 0 0 0 0 0 0 0 0 0 0 0 0 0 0 0 0 0 0 0 0 0 0 0 0 0 0 0 0 2 0 0 0 1 2 0 18 16 11 0 0 0
0 0 0 0 0 0 0 0 0 0 0 0 0 0 0 0 0 0 0 0 0 0 0 0 0 0 0 0 0 0 0 6 2 0 1 0 0 3 0 4 0 2 0 0 0
0 0 0 0 0 0 0 0 0 0 0 0 0 0 0 0 0 0 0 0 0 0 0 0 0 0 0 0 0 0 0 0 4 3 10 11 0 0 39 12 0 0 0 0 0
0 0 0 0 0 0 0 0 0 0 0 0 0 0 0 0 0 0 0 0 0 1 6 0 0 0 0 0 0 0 0 2 8 5 0 6 0 0 8 0 0 2 0 0 0
0 0 0 0 0 0 0 0 0 0 0 0 0 0 0 0 0 0 0 0 0 3 12 4 0 0 0 0 0 0 0 0 1 5 0 0 0 0 0 0 0 0 0 0 0
0 0 0 0 0 0 0 0 0 1 2 1 0 0 0 0 0 0 0 0 0 16 4 2 1 0 0 0 0 0 0 0 0 0 1 0 0 0 0 0 0 0 0 0 0
0 0 0 0 0 2 0 0 2 2 0 2 0 6 2 1 0 0 0 0 0 0 0 0 0 0 0 0 0 0 0 0 0 0 0 0 0 0 0 0 0 0 0 0 0
0 0 0 0 1 0 0 1 1 1 0 1 5 3 3 1 4 1 1 0 0 0 0 0 0 0 0 0 0 0 0 0 0 0 0 0 0 0 0 0 0 0 0 0 0
CIN
-0 -1 -0 -0 -0 -1 -1 -1 -1 -0 -0 -0 -0 -0 -0 -0 -0 -0 -0 -0 -0 -0 -0 -0 -0 -0 -0 -0 -0 -0 -0 -0 -0 -0 -0 -0 -0 -0 -0 -0 -0 -0 -0 -0 -0
-0 -0 -0 -1 -0 -1 -0 -0 -0 -0 -0 -0 -0 -0 -0 -0 -0 -0 -0 -0 -0 -0 -0 -0 -0 -0 -0 -0 -0 -0 -0 -0 -0 -0 -0 -0 -0 -0 -0 -0 -0 -0 -0 -0 -0
-0 -0 -0 -1 -0 -0 -0 -0 -0 -0 -1 -0 -0 -0 -0 -1 -0 -0 -0 -0 -0 -0 -0 -0 -0 -0 -0 -0 -0 -0 -0 -0 -0 -0 -0 -0 -0 -0 -0 -0 -0 -0 -0 -0 -0
-0 -0 -0 -0 -0 -0 -0 -0 -0 -0 -0 -0 -0 -0 -0 -0 -0 -0 -0 -0 -0 -0 -0 -0 -0 -0 -0 -0 -0 -0 -0 -0 -0 -0 -0 -0 -0 -0 -0 -0 -0 -0 -0 -0 -0
-0 -0 -0 -0 -0 -0 -0 -0 -0 -0 -0 -0 -0 -0 -0 -0 -0 -0 -0 -0 -0 -0 -0 -0 -0 -0 -0 -0 -0 -0 -0 -0 -0 -0 -0 -0 -0 -0 -0 -0 -0 -0 -0 -0 -0
-0 -0 -0 -0 -0 -0 -0 -0 -0 -0 -0 -0 -0 -0 -0 -0 -0 -0 -0 -0 -0 -0 -0 -0 -0 -0 -0 -0 -0 -0 -0 -0 -0 -0 -0 -0 -0 -0 -0 -0 -0 -0 -0 -0 -0
-0 -0 -0 -0 -0 -0 -0 -0 -0 -0 -0 -0 -0 -0 -0 -0 -0 -0 -0 -0 -0 -0 -0 -0 -0 -0 -0 -0 -0 -0 -0 -0 -0 -0 -0 -0 -0 -0 -0 -0 -0 -0 -0 -0 -0
-0 -0 -0 -0 -0 -0 -0 -0 -0 -0 -0 -0 -0 -0 -0 -0 -0 -0 -0 -0 -0 -0 -0 -0 -0 -0 -0 -0 -0 -0 -0 -0 -0 -0 -0 -0 -0 -0 -0 -0 -0 -0 -0 -0 -0
-0 -0 -0 -0 -0 -0 -0 -0 -0 -0 -0 -0 -0 -0 -0 -0 -0 -0 -0 -0 -0 -0 -0 -0 -0 -0 -0 -0 -0 -0 -0 -0 -0 -0 -0 -0 -0 -0 -0 -0 -0 -0 -0 -0 -0
-0 -0 -0 -0 -0 -0 -0 -0 -0 -0 -0 -0 -0 -0 -0 -0 -0 -0 -0 -0 -0 -0 -0 -0 -0 -0 -0 -0 -0 -0 -0 -0 -0 -0 -0 -0 -0 -0 -0 -0 -0 -0 -0 -0 -0
-0 -0 -0 -0 -0 -0 -0 -0 -0 -0 -0 -0 -0 -0 -0 -0 -0 -0 -0 -0 -0 -0 -0 -0 -0 -0 -0 -0 -0 -0 -0 -0 -0 -0 -0 -0 -0 -0 -0 -0 -0 -0 -0 -0 -0
-0 -0 -0 -0 -0 -0 -0 -0 -0 -0 -0 -0 -0 -0 -0 -0 -0 -0 -0 -0 -0 -0 -0 -0 -0 -0 -0 -0 -0 -0 -0 -0 -0 -0 -0 -0 -0 -0 -0 -0 -0 -0 -0 -0 -0
-0 -0 -0 -0 -0 -0 -0 -0 -0 -0 -0 -0 -0 -0 -0 -0 -0 -0 -0 -0 -0 -0 -0 -0 -0 -0 -0 -0 -0 -0 -0 -0 -0 -0 -0 -0 -0 -0 -0 -0 -0 -0 -0 -0 -0
-0 -0 -0 -0 -0 -0 -0 -0 -0 -0 -0 -0 -0 -0 -0 -0 -0 -0 -0 -0 -0 -0 -0 -0 -0 -0 -0 -0 -0 -0 -0 -0 -0 -0 -0 -0 -0 -0 -0 -0 -0 -0 -0 -0 -0
-0 -0 -0 -0 -0 -0 -0 -0 -0 -0 -0 -0 -0 -0 -0 -0 -0 -0 -0 -0 -0 -0 -0 -0 -0 -0 -0 -0 -0 -0 -0 -0 -0 -0 -0 -0 -0 -0 -0 -0 -0 -0 -0 -0 -0
-0 -0 -0 -0 -0 -0 -0 -0 -0 -0 -0 -0 -0 -0 -0 -0 -0 -0 -0 -0 -0 -0 -0 -0 -0 -0 -0 -0 -0 -0 -0 -0 -0 -0 -0 -0 -0 -0 -0 -0 -0 -0 -0 -0 -0
-0 -0 -0 -0 -0 -0 -0 -0 -0 -0 -0 -0 -0 -0 -0 -0 -0 -0 -0 -0 -0 -0 -0 -0 -0 -0 -0 -0 -0 -0 -0 -0 -0 -0 -0 -0 -0 -0 -0 -0 -0 -0 -0 -0 -0
-0 -0 -0 -0 -0 -0 -0 -0 -0 -0 -0 -0 -0 -0 -0 -0 -0 -0 -0 -0 -0 -0 -0 -0 -0 -0 -0 -0 -0 -0 -0 -0 -0 -0 -0 -0 -0 -0 -0 -0 -0 -0 -0 -0 -0
-0 -0 -0 -0 -0 -0 -0 -0 -0 -0 -0 -0 -0 -0 -0 -0 -0 -0 -0 -0 -0 -0 -0 -0 -0 -0 -0 -0 -0 -0 -0 -0 -0 -0 -0 -0 -0 -0 -0 -28 -49 -9 -0 -0 -0
-0 -0 -0 -0 -0 -0 -0 -0 -0 -0 -0 -0 -0 -0 -0 -0 -0 -0 -0 -0 -0 -0 -0 -0 -0 -0 -0 -0 -0 -0 -0 -0 -0 -0 -0 -0 -1 -5 -0 -13 -33 -50 -0 -0 -0
-0 -0 -0 -0 -0 -0 -0 -0 -0 -0 -0 -0 -0 -0 -0 -0 -0 -0 -0 -0 -0 -0 -0 -0 -0 -0 -0 -0 -0 -0 -0 -3 -4 -0 -1 -1 -0 -36 -0 -80 -0 -90 -0 -0 -0
-0 -0 -0 -0 -0 -0 -0 -0 -0 -0 -0 -0 -0 -0 -0 -0 -0 -0 -0 -0 -0 -23 -0 -0 -0 -0 -0 -0 -0 -0 -0 -0 -1 -1 -2 -0 -0 -0 -45 -88 -0 -0 -0 -0 -0
-0 -0 -0 -0 -0 -0 -0 -0 -0 -0 -0 -0 -0 -0 -0 -0 -0 -0 -0 -0 -0 -4 -15 -0 -0 -0 -0 -0 -0 -0 -0 -7 -11 -11 -0 -1 -0 -0 -30 -0 -0 -105 -0 -0 -0
-0 -0 -0 -0 -0 -0 -0 -0 -0 -0 -0 -0 -0 -0 -0 -0 -0 -0 -0 -0 -0 -16 -25 -36 -0 -0 -0 -0 -0 -0 -0 -0 -1 -1 -0 -0 -0 -0 -0 -0 -0 -75 -0 -0 -0
-0 -0 -0 -0 -0 -0 -0 -0 -0 -0 -2 -4 -0 -0 -0 -0 -3 -0 -0 -0 -0 -6 -39 -39 -3 -0 -0 -0 -0 -0 -0 -0 -0 -0 -1 -0 -0 -0 -0 -0 -6 -0 -0 -0 -0
-0 -0 -0 -0 -0 -0 -0 -0 -0 -1 -0 -0 -0 -0 -0 -0 -0 -0 -0 -0 -0 -0 -0 -0 -0 -0 -0 -0 -0 -0 -0 -0 -0 -0 -0 -1 -1 -0 -0 -0 -0 -0 -0 -0 -0
-0 -0 -0 -0 -0 -0 -1 -0 -0 -0 -0 -1 -0 -0 -0 -0 -0 -0 -1 -0 -0 -0 -0 -0 -0 -0 -0 -0 -0 -0 -0 -0 -0 -0 -0 -1 -0 -0 -0 -0 -0 -0 -0 -0 -0
Wind_Speed
32 30 28 22 17 13 12 10 8 5 6 7 16 21 23 23 24 22 25 21 17 20 14 11 12 13 15 18 18 19 28 30 29 29 29 25 29 28 28 33 31 27 29 29 28
33 33 31 23 18 12 10 8 6 6 7 8 8 19 20 20 22 23 22 19 19 11 13 11 10 9 15 16 17 21 28 29 25 27 29 30 33 36 34 35 36 36 34 29 26
35 35 33 31 19 14 8 7 6 6 8 10 11 17 18 18 16 15 17 16 12 10 13 12 8 13 16 16 18 20 28 24 24 25 27 30 33 30 35 40 35 35 35 34 32
38 36 32 31 24 15 9 6 7 7 8 10 13 14 16 15 13 14 11 6 9 11 9 8 11 12 15 17 17 21 22 22 24 25 27 30 31 32 33 36 35 34 34 34 36
39 37 34 27 26 6 10 7 7 8 8 10 12 14 15 16 15 12 5 2 6 9 10 9 9 13 16 16 16 21 23 22 25 26 28 31 33 35 35 33 34 34 34 36 35
38 37 34 30 25 22 3 6 7 8 9 11 12 14 16 18 12 9 8 6 5 9 8 7 11 12 13 15 17 15 19 22 24 25 27 32 34 27 28 31 33 34 35 35 35
36 34 32 31 28 24 19 6 6 8 9 12 13 14 18 19 14 7 8 10 5 6 6 10 11 14 13 16 16 19 25 25 25 26 27 28 36 31 32 29 31 35 36 36 34
23 28 31 32 29 26 24 20 10 8 9 12 13 11 18 12 12 8 9 10 10 11 11 12 13 14 16 14 18 22 24 28 23 24 24 25 38 32 27 30 36 35 36 35 37
36 26 27 30 30 28 26 24 14 12 12 12 13 11 13 14 17 9 6 12 9 12 14 13 16 15 16 18 22 22 25 25 26 22 26 25 35 29 36 38 38 36 34 35 37
37 36 30 31 31 26 27 23 17 16 15 13 13 12 4 9 10 9 6 8 10 10 12 15 16 16 17 16 23 19 23 24 29 24 30 36 40 37 36 37 37 35 34 37 38
39 39 30 29 30 26 20 15 17 16 13 8 11 12 13 16 12 9 7 4 11 13 11 14 16 17 15 16 20 21 23 27 29 30 30 35 39 37 36 36 36 36 37 36 39
41 40 36 31 29 8 13 14 15 18 21 7 3 12 10 13 12 9 6 5 8 7 12 16 20 21 16 16 18 20 25 30 31 28 30 39 43 41 34 35 36 37 39 42 39
42 39 40 36 28 17 12 13 14 18 20 17 12 11 6 3 7 5 4 6 7 7 7 12 14 15 13 15 19 23 27 30 34 33 33 42 49 37 32 33 34 35 36 39 44
42 42 40 38 18 18 13 13 16 15 17 15 15 13 6 6 10 6 3 7 10 9 9 16 14 16 17 19 18 29 22 29 31 36 41 37 59 42 41 42 38 37 35 36 38
32 37 39 32 15 14 14 16 15 15 18 14 14 10 7 7 11 11 6 8 8 10 11 16 17 19 22 21 17 28 26 29 32 37 38 38 47 48 40 44 43 40 38 38 34
29 28 30 18 14 12 16 16 14 15 17 16 13 11 9 12 14 12 12 13 15 15 17 20 20 21 21 21 21 25 29 31 30 34 34 39 38 52 48 44 42 38 33 30 30
30 27 2 14 17 16 14 14 17 17 19 18 17 14 11 14 16 18 16 14 16 18 20 23 22 21 19 20 22 23 26 32 32 30 35 33 42 44 49 47 37 34 28 26 30
32 17 17 15 13 16 15 16 19 18 18 19 19 19 17 17 16 17 17 19 18 20 24 26 27 19 18 18 20 20 23 26 35 38 44 41 36 34 35 31 25 24 27 28 28
29 22 20 19 15 15 15 18 18 18 19 20 20 21 19 18 19 20 21 23 19 17 21 22 23 18 18 19 20 21 23 23 29 31 37 32 33 34 23 26 27 26 28 29 31
25 21 23 21 17 17 17 18 17 19 21 18 19 19 22 21 24 23 23 21 19 18 18 20 25 22 21 17 19 19 16 23 23 31 35 33 35 31 28 29 30 31 32 32 32
23 20 24 20 17 19 19 18 17 20 24 20 20 17 21 22 19 23 24 23 21 19 18 17 20 21 18 17 17 18 19 19 21 23 30 36 29 21 28 27 31 34 33 33 32
23 21 26 19 19 20 19 20 20 21 21 20 22 20 17 25 27 22 23 22 20 16 19 17 18 21 19 17 18 15 17 15 21 24 22 28 30 17 17 28 37 36 34 33 33
25 20 21 19 20 21 21 21 20 22 22 21 17 16 20 21 22 22 17 16 19 17 16 12 17 22 19 16 15 16 14 14 19 23 24 23 24 16 12 36 41 37 36 35 34
24 24 23 23 21 22 24 22 21 22 20 21 18 17 17 17 18 21 21 17 21 20 16 11 16 17 19 21 18 19 16 16 19 23 21 16 14 10 10 13 33 35 36 37 38
25 22 22 24 24 26 22 22 24 24 22 22 20 17 15 18 21 24 28 27 21 17 17 15 19 16 16 17 17 18 18 17 17 14 12 11 13 14 13 13 26 33 39 41 43
24 24 22 23 22 25 22 21 24 23 23 22 20 18 17 18 18 23 26 29 27 19 16 15 17 17 21 17 15 18 16 15 11 7 10 11 10 21 25 28 25 36 44 46 47
20 19 22 22 24 24 22 23 23 28 21 17 19 20 19 20 24 24 30 30 24 20 14 14 15 19 21 17 20 19 17 12 5 5 1 6 16 22 19 22 30 45 48 52 53
Wind_Direction
7 5 7 21 30 37 38 47 62 103 130 99 238 264 279 281 275 271 259 262 262 258 273 277 272 266 270 270 272 272 265 267 269 271 273 279 275 280 286 277 277 279 279 286 299
12 1 1 21 30 45 50 61 84 105 144 143 127 256 269 272 265 252 255 258 255 251 263 269 266 265 268 271 274 268 267 270 277 277 275 278 278 276 278 277 276 275 277 287 295
9 356 349 353 31 44 68 78 106 121 154 183 183 255 264 262 250 263 263 253 259 248 268 274 274 271 271 276 274 277 270 279 280 281 282 280 279 282 279 274 277 277 279 283 286
356 347 330 331 14 42 63 99 112 128 152 173 201 215 244 257 251 270 283 252 250 257 270 278 278 275 277 275 280 280 283 285 288 287 284 282 283 281 281 280 281 281 280 281 279
350 344 336 315 312 62 62 93 145 144 145 165 172 192 232 252 251 296 356 292 268 266 273 281 280 280 278 285 287 283 286 289 288 288 285 283 279 279 280 284 281 281 279 277 279
342 341 334 323 305 292 156 105 126 151 165 159 164 170 214 225 287 344 45 25 332 280 279 290 292 296 293 292 289 297 296 294 293 292 291 284 282 287 286 290 285 282 281 279 277
335 329 325 322 312 297 278 193 160 155 152 177 137 139 225 221 270 347 50 305 9 317 310 309 316 300 302 295 301 301 292 296 295 296 294 293 281 285 286 290 289 285 282 280 279
318 316 318 322 312 299 290 268 214 171 117 93 25 81 184 325 299 345 313 298 290 292 307 311 315 310 303 312 306 297 296 289 299 301 301 296 281 291 297 292 288 289 286 284 280
325 315 309 311 312 302 290 283 286 33 41 52 42 99 139 288 227 321 32 294 296 291 296 305 306 303 306 301 297 302 294 298 300 309 302 298 290 300 294 292 290 290 289 287 285
318 317 310 306 309 297 307 331 5 7 7 14 354 8 343 15 341 357 12 323 302 310 308 301 302 301 303 307 296 303 301 303 299 307 301 293 291 297 297 294 293 292 291 289 286
314 317 308 302 300 358 2 12 3 3 7 20 7 351 329 305 325 339 335 1 312 309 314 315 308 304 313 310 305 307 305 302 303 304 303 297 295 299 300 296 293 293 293 293 289
316 316 311 304 296 335 33 12 4 355 333 6 168 320 320 322 330 341 22 341 328 329 318 312 306 306 313 314 311 309 307 305 306 309 307 299 294 298 301 300 298 296 293 291 292
317 313 317 310 307 27 31 24 18 0 338 337 354 346 325 5 350 355 34 354 340 338 340 323 329 344 336 321 310 308 307 307 306 310 308 303 294 302 306 304 302 300 298 296 292
312 316 315 313 13 15 32 33 12 10 357 352 351 351 358 354 334 347 52 350 330 334 333 322 325 324 326 319 316 305 317 313 310 309 304 313 278 303 306 302 302 302 300 299 297
299 305 314 334 16 24 29 22 32 29 345 5 354 23 2 331 338 336 340 327 327 333 335 325 327 324 319 318 322 311 319 313 310 308 309 310 303 305 312 306 306 304 303 301 299
299 295 296 22 43 57 18 19 28 10 350 352 11 357 348 308 317 335 329 316 321 312 312 311 321 320 320 323 320 320 316 313 313 311 303 310 307 307 312 310 309 308 309 308 305
302 296 2 61 44 49 50 47 10 354 352 341 338 349 339 315 308 306 311 311 308 312 312 314 313 315 319 317 322 321 322 317 313 310 309 318 311 309 310 312 311 313 318 313 305
308 285 56 73 79 44 44 21 357 2 358 352 333 327 323 321 312 310 310 307 312 311 310 311 313 326 328 323 323 324 322 317 314 314 312 316 314 320 327 330 328 324 321 308 308
317 26 33 32 61 57 31 2 2 5 358 344 335 317 316 316 314 311 310 306 314 318 313 316 317 331 329 329 327 326 321 326 319 318 317 321 321 325 338 339 335 324 318 316 307
15 23 18 17 48 38 19 7 13 12 360 358 338 332 307 311 304 307 307 311 312 317 322 320 315 322 326 334 335 330 338 330 330 326 323 326 323 324 333 332 326 319 315 315 315
24 20 15 13 34 16 3 6 10 8 2 356 340 333 318 313 318 307 303 309 310 314 318 325 320 326 331 330 328 334 331 333 333 331 328 327 333 335 325 322 318 311 313 314 312
21 10 5 20 6 9 3 1 1 355 356 347 347 343 328 308 305 308 304 307 315 317 314 323 325 321 325 336 335 337 333 330 331 334 330 328 325 339 331 309 307 310 314 315 310
12 16 18 16 0 359 357 357 360 354 355 353 347 338 338 326 310 310 316 325 323 318 321 329 325 325 330 341 345 342 344 342 337 334 323 324 334 10 347 299 303 304 305 313 311
6 360 7 11 13 359 352 353 354 357 356 351 346 346 339 321 316 313 314 321 318 320 319 325 318 318 319 328 338 334 332 329 328 325 327 311 276 301 304 275 312 313 306 305 307
5 3 6 353 353 348 353 351 345 348 355 353 349 346 332 319 311 300 299 306 316 318 319 317 313 317 320 325 331 329 326 324 320 316 312 304 309 276 331 338 336 323 307 301 298
3 1 2 355 358 353 356 356 348 353 353 352 346 343 331 319 310 302 301 298 301 313 319 322 317 327 324 329 328 327 325 324 313 293 268 258 277 343 340 336 338 325 306 296 295
8 10 3 357 353 353 356 354 351 347 355 357 351 344 332 319 303 296 295 297 300 307 318 319 324 328 330 349 344 339 349 356 11 15 352 253 257 327 320 333 332 315 307 297 297